Change the Weather History Date:

Sunday, August 25, 2013

  Actual Average Record
Temperature  
Mean Temperature 82 °F 82 °F  
Max Temperature 91 °F 92 °F 103 °F (1998)
Min Temperature 73 °F 72 °F 54 °F (1891)
Degree Days  
Heating Degree Days 0 0  
Month to date heating degree days 0 0  
Since 1 June heating degree days 0 0  
Since 1 July heating degree days 0 0  
Cooling Degree Days 17 17  
Month to date cooling degree days 362 444  
Year to date cooling degree days 1516 1703  
Since 1 June cooling degree days 1265 1422  
Growing Degree Days 32 (Base 50)    
Moisture  
Dew Point 72 °F    
Average Humidity 71    
Maximum Humidity 93    
Minimum Humidity 48    
Precipitation  
Precipitation T in 0.08 in 1.69 in (1914)
Month to date precipitation 3.77 2.05  
Year to date precipitation 34.22 30.87  
Snow  
Snow 0.00 in 0.00 in - ()
Month to date snowfall 0.0 0.0  
Since 1 June snowfall 0.0 0.0  
Since 1 July snowfall 0.0 0.0  
Snow Depth 0.00 in    
Sea Level Pressure  
Sea Level Pressure 30.18 in    
Wind  
Wind Speed 4 mph (ESE)    
Max Wind Speed 13 mph    
Max Gust Speed -    
Visibility 9 miles    
Events      
T = Trace of Precipitation, MM = Missing Value Source: NWS Daily Summary

Daily Weather History Graph

Daily Weather History Graph

Search for Another Location

Airport or City:

Trip Planner

Search our weather history database for the weather conditions in past years. The results will help you decide how hot, cold, wet, or windy it might be!

Date:

Astronomy

Aug. 25, 2013 Rise Set
Actual Time 6:36 AM CDT 7:44 PM CDT
Civil Twilight 6:10 AM CDT 8:10 PM CDT
Nautical Twilight 5:39 AM CDT 8:41 PM CDT
Astronomical Twilight 5:07 AM CDT 9:13 PM CDT
Moon 10:31 PM CDT (8/25) 11:24 AM CDT (8/25)
Length of Visible Light 13h 59m
Length of Day
13h 07m
Waning Gibbous, 75% of the Moon is Illuminated
Aug 25
Waning Gibbous
Aug 28
Last Quarter
Sep 5
New
Sep 12
First Quarter
Sep 19
Full

Hourly Weather History & Observations

Time (CDT) Temp. Heat Index Dew Point Humidity Pressure Visibility Wind Dir Wind Speed Gust Speed Precip Events Conditions
12:53 AM 80.1 °F 84.2 °F 73.0 °F 79% 30.14 in 10.0 mi Calm Calm - N/A   Clear
1:53 AM 78.1 °F - 73.0 °F 84% 30.14 in 7.0 mi ENE 3.5 mph - N/A   Clear
2:53 AM 77.0 °F - 73.0 °F 88% 30.14 in 7.0 mi ENE 3.5 mph - N/A   Partly Cloudy
3:53 AM 75.0 °F - 72.0 °F 90% 30.15 in 7.0 mi East 5.8 mph - N/A   Clear
4:53 AM 73.9 °F - 71.1 °F 91% 30.16 in 7.0 mi Calm Calm - N/A   Clear
5:53 AM 75.0 °F - 71.1 °F 87% 30.18 in 6.0 mi East 3.5 mph - N/A   Clear
6:53 AM 73.9 °F - 72.0 °F 93% 30.19 in 5.0 mi NE 3.5 mph - N/A   Clear
7:53 AM 77.0 °F - 73.0 °F 88% 30.22 in 5.0 mi Calm Calm - N/A   Clear
8:53 AM 79.0 °F - 73.0 °F 82% 30.22 in 8.0 mi Calm Calm - N/A   Clear
9:53 AM 84.0 °F 89.0 °F 71.1 °F 65% 30.21 in 10.0 mi Calm Calm - N/A   Partly Cloudy
10:53 AM 87.1 °F 93.6 °F 72.0 °F 61% 30.22 in 10.0 mi ESE 4.6 mph - N/A   Scattered Clouds
11:53 AM 88.0 °F 92.9 °F 70.0 °F 55% 30.21 in 10.0 mi South 6.9 mph - N/A   Scattered Clouds
12:53 PM 89.1 °F 95.0 °F 71.1 °F 55% 30.20 in 10.0 mi ESE 8.1 mph - N/A   Mostly Cloudy
1:53 PM 91.0 °F 96.6 °F 70.0 °F 50% 30.19 in 10.0 mi ESE 6.9 mph - N/A   Mostly Cloudy
2:53 PM 91.9 °F 97.4 °F 70.0 °F 48% 30.17 in 10.0 mi SSE 8.1 mph - N/A   Mostly Cloudy
3:53 PM 91.0 °F 97.6 °F 71.1 °F 52% 30.16 in 10.0 mi Calm Calm - N/A   Mostly Cloudy
4:53 PM 91.9 °F 97.4 °F 70.0 °F 48% 30.15 in 10.0 mi SE 5.8 mph - N/A   Scattered Clouds
5:53 PM 91.0 °F 96.6 °F 70.0 °F 50% 30.14 in 10.0 mi SE 9.2 mph - N/A   Partly Cloudy
6:53 PM 88.0 °F 94.7 °F 72.0 °F 59% 30.14 in 10.0 mi ESE 12.7 mph - N/A   Scattered Clouds
7:53 PM 84.0 °F 90.2 °F 73.0 °F 69% 30.16 in 10.0 mi ESE 9.2 mph - N/A   Partly Cloudy
8:53 PM 82.9 °F 88.8 °F 73.0 °F 72% 30.18 in 10.0 mi ESE 8.1 mph - N/A   Clear
9:53 PM 81.0 °F 85.2 °F 72.0 °F 74% 30.20 in 10.0 mi ESE 6.9 mph - N/A   Clear
10:53 PM 80.1 °F 83.8 °F 72.0 °F 76% 30.21 in 10.0 mi ESE 5.8 mph - N/A   Clear
11:53 PM 78.1 °F - 72.0 °F 81% 30.21 in 10.0 mi ESE 4.6 mph - N/A   Clear